Regional Weather Roundup
Issued by NWS

Home | Current Version | Previous Version | Graphics & Text | Print | Product List | Glossary On
Versions: 1 2 3 4 5 6 7 8 9 10 11 12 13 14 15 16 17 18 19 20 21 22 23 24 25 26 27 28 29 30 31 32 33 34 35 36 37 38 39 40 41 42 43 44 45 46 47 48 49 50
265
ASUS44 KMEG 221910
RWRTN
TENNESSEE HOURLY STATE WEATHER ROUNDUP
NATIONAL WEATHER SERVICE MEMPHIS TN
200 PM CDT MON MAY 22 2017

TNZ002-004-019-021-049-052-054-088>092-222000-
WEST TENNESSEE

CITY           SKY/WX    TMP DP  RH WIND       PRES   REMARKS
MEMPHIS INTL   CLOUDY    74  54  49 SE5       30.05F
NWS MEMPHIS      N/A     73 N/A N/A MISG        N/A
JACKSON        CLOUDY    74  54  49 MISG      30.07F
DYERSBURG      CLOUDY    71  51  49 VRB5      30.08F
COVINGTON      SUNNY     72  54  53 VRB5      30.06F
UNION CITY     SUNNY     72  50  46 VRB6      30.06F
BOLIVAR        SUNNY     72  55  56 CALM      30.06F
PARIS          SUNNY     70  52  52 CALM      30.07F
HUNTINGDON     SUNNY     72  54  53 SE6       30.07F
SELMER         SUNNY     72  55  56 NE7       30.05F
SAVANNAH       SUNNY     73  57  56 VRB5      30.04F
$$

TNZ008-025-027-028-033-062-065-066-222000-
NORTH MIDDLE TENNESSEE

CITY           SKY/WX    TMP DP  RH WIND       PRES   REMARKS
NASHVILLE      PTSUNNY   74  49  41 VRB5      30.08F
PORTLAND       SUNNY     70  50  49 NE7       30.08F
CLARKSVILLE    MOSUNNY   71  46  40 NE6       30.07F
SMYRNA         CLOUDY    73  56  54 N7        30.08F
COOKEVILLE     SUNNY     72  55  56 VRB3      30.05F
GALLATIN       SUNNY     72  48  43 CALM      30.09F
CROSSVILLE     MOSUNNY   71  53  52 E6        30.09F
$$

TNZ061-075-076-078-094-096-097-222000-
SOUTH MIDDLE TENNESSEE

CITY           SKY/WX    TMP DP  RH WIND       PRES   REMARKS
FAYETTEVILLE   SUNNY     75  59  57 VRB5      30.05F
TULLAHOMA      SUNNY     72  52  49 E6        30.07S
WINCHESTER     MOSUNNY   75  61  60 VRB6      30.05F
MCMINNVILLE    SUNNY     72  57  60 VRB3      30.06F
COLUMBIA       SUNNY     73  54  49 E5        30.05F
SHELBYVILLE    MOSUNNY   72  57  60 NW7       30.07S
$$

TNZ017-018-042-046-047-222000-
NORTHEAST TENNESSEE

CITY           SKY/WX    TMP DP  RH WIND       PRES   REMARKS
TRI CITIES     PTSUNNY   75  62  64 CALM      30.05F
ELIZABETHTON   DRIZZLE   75  63  64 W8        30.04F
$$

TNZ012-013-036-069-073-074-222000-
CENTRAL EAST TENNESSEE

CITY           SKY/WX    TMP DP  RH WIND       PRES   REMARKS
KNOXVILLE      CLOUDY    72  59  63 N6        30.05S
OAK RIDGE      CLOUDY    73  58  59 VRB3      30.06F
GATLINBURG     CLOUDY    72  61  68 NW5       30.04F
MORRISTOWN     CLOUDY    70  63  78 VRB5      30.05F
JACKSBORO      SUNNY     73  57  56 VRB6      30.09F
$$

TNZ083-085-099-222000-
SOUTHEAST TENNESSEE

CITY           SKY/WX    TMP DP  RH WIND       PRES   REMARKS
CHATTANOOGA    CLOUDY    77  60  55 N8        30.02F
$$

SKY/WX REPORTED AS FAIR MEANS FEW OR NO CLOUDS BELOW
12 THOUSAND FEET.





USA.gov is the U.S. government's official web portal to all federal, state and local government web resources and services.